Location: Conjunto Santa Maria
(19.9513°S, 43.9599°W)
Time: 16:51:35
(UTC+00:00)

Centaur D-1A AC-31 - Pass Details

Date: 21 January 2021
Orbit: 495 x 36445 km, 27.3° (Epoch: 28 February)

Event Time Altitude Azimuth Distance (km) Brightness Sun altitude
Rises 23:03:14 0° 247° (WSW) 2,910 6.2 -18.3°
Reaches altitude 10° 23:05:28 10° 240° (WSW) 1,733 4.6 -18.7°
Maximum altitude 23:08:24 48° 163° (SSE) 695 1.3 -19.3°
Enters shadow 23:09:29 34° 112° (ESE) 955 1.7 -19.6°
